,,,PA_Meas_PMT16A,,PR_Meas_QMR101_102,,RH_Meas_QMH101,,SR_Meas_QMS101,,TA_Meas_QMH101,,GenWind,,GenWind,
date,time,status,PA,status,PR,status,RH,status,SR,status,TA,status,DirAvg,status,SpdAvg,
2012-04-07, 00:00:04,VALID,1011.03,VALID,0,VALID,104,VALID,0,VALID,23.2848,VALID,65,VALID,0.250391,
2012-04-07, 00:01:04,VALID,1011.01,VALID,0,VALID,104,VALID,0,VALID,23.2654,VALID,65,VALID,0.00429688,
2012-04-07, 00:02:04,VALID,1011.01,VALID,0,VALID,104,VALID,0,VALID,23.2654,VALID,65,VALID,0.283984,
2012-04-07, 00:03:04,VALID,1010.99,VALID,0,VALID,104,VALID,0,VALID,23.2654,VALID,65,VALID,0.130859,
2012-04-07, 00:04:04,VALID,1011.01,VALID,0,VALID,104,VALID,0,VALID,23.2654,VALID,65,VALID,0.135547,
2012-04-07, 00:05:04,VALID,1010.96,VALID,0,VALID,104,VALID,0,VALID,23.2459,VALID,65,VALID,0.455469,
2012-04-07, 00:06:04,VALID,1010.93,VALID,0,VALID,104,VALID,0,VALID,23.2654,VALID,65,VALID,0.339844,
2012-04-07, 00:07:04,VALID,1010.91,VALID,0,VALID,104,VALID,0,VALID,23.2654,VALID,65,VALID,0.355469,
2012-04-07, 00:08:04,VALID,1010.9,VALID,0,VALID,104,VALID,0,VALID,23.2264,VALID,65,VALID,0.326562,
2012-04-07, 00:09:04,VALID,1010.88,VALID,0,VALID,104,VALID,0,VALID,23.2264,VALID,55,VALID,0.420703,
2012-04-07, 00:10:04,VALID,1010.88,VALID,0,VALID,104,VALID,0,VALID,23.2069,VALID,55,VALID,0.556641,
2012-04-07, 00:11:04,VALID,1010.87,VALID,0,VALID,104,VALID,0,VALID,23.1874,VALID,55,VALID,0.453516,
2012-04-07, 00:12:04,VALID,1010.85,VALID,0,VALID,104,VALID,0,VALID,23.1874,VALID,55,VALID,0.355469,
2012-04-07, 00:13:04,VALID,1010.84,VALID,0,VALID,104,VALID,0,VALID,23.1679,VALID,55,VALID,0.09375,
2012-04-07, 00:14:04,VALID,1010.85,VALID,0,VALID,104,VALID,0,VALID,23.129,VALID,55,VALID,0.483984,
2012-04-07, 00:15:04,VALID,1010.84,VALID,0,VALID,104,VALID,0,VALID,23.129,VALID,55,VALID,0.377344,
2012-04-07, 00:16:04,VALID,1010.87,VALID,0,VALID,104,VALID,0,VALID,23.1095,VALID,55,VALID,0.331641,
2012-04-07, 00:17:04,VALID,1010.84,VALID,0,VALID,104,VALID,0,VALID,23.1095,VALID,55,VALID,0.521875,
2012-04-07, 00:18:04,VALID,1010.79,VALID,0,VALID,104,VALID,0,VALID,23.1095,VALID,69,VALID,0.615234,
2012-04-07, 00:19:04,VALID,1010.75,VALID,0,VALID,104,VALID,0,VALID,23.0705,VALID,69,VALID,0.328906,
2012-04-07, 00:20:04,VALID,1010.72,VALID,0,VALID,104,VALID,0,VALID,23.09,VALID,55,VALID,0.872656,
2012-04-07, 00:21:04,VALID,1010.69,VALID,0,VALID,104,VALID,0,VALID,23.09,VALID,66,VALID,0.723047,
2012-04-07, 00:22:04,VALID,1010.66,VALID,0,VALID,104,VALID,0,VALID,23.1095,VALID,76,VALID,0.669922,
2012-04-07, 00:23:04,VALID,1010.61,VALID,0,VALID,104,VALID,0,VALID,23.1095,VALID,65,VALID,0.885156,
2012-04-07, 00:24:04,VALID,1010.6,VALID,0,VALID,104,VALID,0,VALID,23.09,VALID,85,VALID,0.367969,
2012-04-07, 00:25:04,VALID,1010.6,VALID,0,VALID,104,VALID,0,VALID,23.09,VALID,85,VALID,0.842969,
2012-04-07, 00:26:04,VALID,1010.57,VALID,0,VALID,104,VALID,0,VALID,23.0918,VALID,68,VALID,0.986328,
2012-04-07, 00:27:05,VALID,1010.57,VALID,0,VALID,104,VALID,0,VALID,23.0705,VALID,64,VALID,0.983984,
2012-04-07, 00:28:05,VALID,1010.56,VALID,0,VALID,104,VALID,0,VALID,23.0705,VALID,61,VALID,0.755469,
2012-04-07, 00:29:05,VALID,1010.53,VALID,0,VALID,104,VALID,0,VALID,23.0705,VALID,61,VALID,0.79375,
2012-04-07, 00:30:05,VALID,1010.54,VALID,0,VALID,104,VALID,0,VALID,23.0511,VALID,58,VALID,0.469141,
2012-04-07, 00:31:05,VALID,1010.5,VALID,0,VALID,104,VALID,0,VALID,23.0511,VALID,58,VALID,0.948438,
2012-04-07, 00:32:05,VALID,1010.51,VALID,0,VALID,104,VALID,0,VALID,23.0298,VALID,60,VALID,0.695703,
2012-04-07, 00:33:05,VALID,1010.5,VALID,0,VALID,104,VALID,0,VALID,23.0528,VALID,54,VALID,0.557813,
2012-04-07, 00:34:05,VALID,1010.47,VALID,0,VALID,104,VALID,0,VALID,23.0316,VALID,66,VALID,0.799609,
2012-04-07, 00:35:05,VALID,1010.46,VALID,0,VALID,104,VALID,0,VALID,23.0511,VALID,79,VALID,0.989453,
2012-04-07, 00:36:05,VALID,1010.43,VALID,0,VALID,104,VALID,0,VALID,23.0723,VALID,91,VALID,1.04805,
2012-04-07, 00:37:05,VALID,1010.38,VALID,0,VALID,104,VALID,0,VALID,23.09,VALID,89,VALID,0.758203,
2012-04-07, 00:38:05,VALID,1010.39,VALID,0,VALID,104,VALID,0,VALID,23.09,VALID,90,VALID,0.405859,
2012-04-07, 00:39:05,VALID,1010.34,VALID,0,VALID,104,VALID,0,VALID,23.0705,VALID,90,VALID,0.457422,
2012-04-07, 00:40:05,VALID,1010.32,VALID,0,VALID,104,VALID,0,VALID,23.09,VALID,90,VALID,0.405859,
2012-04-07, 00:41:05,VALID,1010.32,VALID,0,VALID,104,VALID,0,VALID,23.1095,VALID,81,VALID,0.647656,
2012-04-07, 00:42:05,VALID,1010.3,VALID,0,VALID,104,VALID,0,VALID,23.1095,VALID,75,VALID,0.465625,
2012-04-07, 00:43:05,VALID,1010.28,VALID,0,VALID,104,VALID,0,VALID,23.1095,VALID,69,VALID,0.549609,
2012-04-07, 00:44:05,VALID,1010.28,VALID,0,VALID,104,VALID,0,VALID,23.1095,VALID,64,VALID,0.882031,
2012-04-07, 00:45:05,VALID,1010.25,VALID,0,VALID,104,VALID,0,VALID,23.09,VALID,58,VALID,0.626953,
2012-04-07, 00:46:05,VALID,1010.21,VALID,0,VALID,104,VALID,0,VALID,23.09,VALID,66,VALID,0.266406,
2012-04-07, 00:47:05,VALID,1010.21,VALID,0,VALID,104,VALID,0,VALID,23.09,VALID,63,VALID,0.665234,
2012-04-07, 00:48:05,VALID,1010.18,VALID,0,VALID,104,VALID,0,VALID,23.09,VALID,62,VALID,0.509766,
2012-04-07, 00:49:05,VALID,1010.16,VALID,0,VALID,104,VALID,0,VALID,23.09,VALID,62,VALID,0.511328,
2012-04-07, 00:50:05,VALID,1010.17,VALID,0,VALID,104,VALID,0,VALID,23.09,VALID,62,VALID,0.192969,
2012-04-07, 00:51:05,VALID,1010.11,VALID,0,VALID,104,VALID,0.112112,VALID,23.0883,VALID,62,VALID,0.404297,
2012-04-07, 00:52:05,VALID,1010.11,VALID,0,VALID,104,VALID,0,VALID,23.129,VALID,109,VALID,0.658984,
2012-04-07, 00:53:05,VALID,1010.11,VALID,0,VALID,104,VALID,0.112112,VALID,23.1077,VALID,109,VALID,0.782812,
2012-04-07, 00:54:05,VALID,1010.08,VALID,0,VALID,104,VALID,0,VALID,23.1077,VALID,109,VALID,0.853516,
2012-04-07, 00:55:05,VALID,1010.07,VALID,0,VALID,104,VALID,0.112112,VALID,23.129,VALID,103,VALID,1.14023,
2012-04-07, 00:56:05,VALID,1010.04,VALID,0,VALID,104,VALID,0.112112,VALID,23.1272,VALID,105,VALID,0.742188,
2012-04-07, 00:57:05,VALID,1010.04,VALID,0,VALID,104,VALID,0.112112,VALID,23.1272,VALID,106,VALID,1.2125,
2012-04-07, 00:58:05,VALID,1010.05,VALID,0,VALID,104,VALID,0.112112,VALID,23.129,VALID,106,VALID,0.605078,
2012-04-07, 00:59:05,VALID,1010.03,VALID,0,VALID,104,VALID,0.112112,VALID,23.1272,VALID,103,VALID,0.999609,
2012-04-07, 01:00:05,VALID,1010,VALID,0,VALID,104,VALID,0.112112,VALID,23.1077,VALID,101,VALID,0.887891,
2012-04-07, 01:01:05,VALID,1009.98,VALID,0,VALID,104,VALID,0.112112,VALID,23.1272,VALID,104,VALID,0.2875,
2012-04-07, 01:02:05,VALID,1009.98,VALID,0,VALID,104,VALID,0.112112,VALID,23.129,VALID,110,VALID,0.474609,
2012-04-07, 01:03:05,VALID,1009.95,VALID,0,VALID,104,VALID,0.112112,VALID,23.1077,VALID,108,VALID,0.241797,
2012-04-07, 01:04:05,VALID,1009.94,VALID,0,VALID,104,VALID,0.112112,VALID,23.1077,VALID,91,VALID,0.692969,
2012-04-07, 01:05:05,VALID,1009.94,VALID,0,VALID,104,VALID,0.112112,VALID,23.1077,VALID,91,VALID,0.488672,
2012-04-07, 01:06:05,VALID,1009.92,VALID,0,VALID,104,VALID,0,VALID,23.1095,VALID,91,VALID,0.50625,
2012-04-07, 01:07:05,VALID,1009.92,VALID,0,VALID,104,VALID,0,VALID,23.1095,VALID,91,VALID,0.465234,
2012-04-07, 01:08:05,VALID,1009.91,VALID,0,VALID,104,VALID,0,VALID,23.09,VALID,97,VALID,0.634375,
2012-04-07, 01:09:05,VALID,1009.88,VALID,0,VALID,104,VALID,0,VALID,23.1112,VALID,130,VALID,0.0316406,
2012-04-07, 01:10:05,VALID,1009.88,VALID,0,VALID,104,VALID,0,VALID,23.1095,VALID,98,VALID,1.06016,
2012-04-07, 01:11:05,VALID,1009.84,VALID,0,VALID,104,VALID,0,VALID,23.1307,VALID,85,VALID,0.648047,
2012-04-07, 01:12:05,VALID,1009.86,VALID,0,VALID,104,VALID,0,VALID,23.129,VALID,94,VALID,0.51875,
2012-04-07, 01:13:05,VALID,1009.85,VALID,0,VALID,104,VALID,0,VALID,23.129,VALID,101,VALID,0.741406,
2012-04-07, 01:14:05,VALID,1009.84,VALID,0,VALID,104,VALID,0,VALID,23.1502,VALID,105,VALID,0.435937,
2012-04-07, 01:15:05,VALID,1009.82,VALID,0,VALID,104,VALID,0,VALID,23.1697,VALID,115,VALID,0.916016,
2012-04-07, 01:16:05,VALID,1009.8,VALID,0,VALID,104,VALID,0,VALID,23.1485,VALID,129,VALID,0.475781,
2012-04-07, 01:17:05,VALID,1009.76,VALID,0,VALID,104,VALID,0,VALID,23.1485,VALID,129,VALID,0.152734,
2012-04-07, 01:18:05,VALID,1009.74,VALID,0,VALID,104,VALID,0,VALID,23.1697,VALID,128,VALID,0.701172,
2012-04-07, 01:19:05,VALID,1009.73,VALID,0,VALID,104,VALID,0,VALID,23.1697,VALID,113,VALID,0.742188,
2012-04-07, 01:20:05,VALID,1009.73,VALID,0,VALID,104,VALID,0,VALID,23.1697,VALID,122,VALID,0.359375,
2012-04-07, 01:21:05,VALID,1009.71,VALID,0,VALID,104,VALID,0,VALID,23.1892,VALID,122,VALID,0.182031,
2012-04-07, 01:22:05,VALID,1009.73,VALID,0,VALID,104,VALID,0,VALID,23.2087,VALID,122,VALID,0.009375,
2012-04-07, 01:23:05,VALID,1009.73,VALID,0,VALID,104,VALID,0,VALID,23.1892,VALID,122,VALID,0.377344,
2012-04-07, 01:24:05,VALID,1009.75,VALID,0,VALID,104,VALID,0,VALID,23.2087,VALID,122,VALID,0.196875,
2012-04-07, 01:25:05,VALID,1009.77,VALID,0,VALID,104,VALID,0,VALID,23.1874,VALID,122,VALID,0.553125,
2012-04-07, 01:26:05,VALID,1009.79,VALID,0,VALID,104,VALID,0,VALID,23.1679,VALID,122,VALID,0.229687,
2012-04-07, 01:27:05,VALID,1009.79,VALID,0,VALID,104,VALID,0,VALID,23.1697,VALID,122,VALID,0.318359,
2012-04-07, 01:28:05,VALID,1009.81,VALID,0,VALID,104,VALID,0,VALID,23.1892,VALID,122,VALID,0.348828,
2012-04-07, 01:29:05,VALID,1009.79,VALID,0,VALID,104,VALID,0,VALID,23.1892,VALID,122,VALID,0.425781,
2012-04-07, 01:30:05,VALID,1009.79,VALID,0,VALID,104,VALID,0,VALID,23.1679,VALID,122,VALID,0.487109,
2012-04-07, 01:31:05,VALID,1009.77,VALID,0,VALID,104,VALID,0,VALID,23.1679,VALID,122,VALID,0.457422,
2012-04-07, 01:32:05,VALID,1009.74,VALID,0,VALID,104,VALID,0,VALID,23.1874,VALID,130,VALID,0.76875,
2012-04-07, 01:33:05,VALID,1009.71,VALID,0,VALID,104,VALID,0,VALID,23.1874,VALID,129,VALID,0.453906,
2012-04-07, 01:34:05,VALID,1009.69,VALID,0,VALID,104,VALID,0,VALID,23.2282,VALID,129,VALID,0.0628906,
2012-04-07, 01:35:05,VALID,1009.68,VALID,0,VALID,104,VALID,0,VALID,23.2476,VALID,129,VALID,0.109766,
2012-04-07, 01:36:05,VALID,1009.69,VALID,0,VALID,104,VALID,0,VALID,23.2264,VALID,129,VALID,0.159766,
2012-04-07, 01:37:05,VALID,1009.66,VALID,0,VALID,104,VALID,0,VALID,23.2264,VALID,128,VALID,0.507813,
2012-04-07, 01:38:05,VALID,1009.65,VALID,0,VALID,104,VALID,0,VALID,23.2654,VALID,124,VALID,0.555859,
2012-04-07, 01:39:05,VALID,1009.66,VALID,0,VALID,104,VALID,0,VALID,23.2866,VALID,124,VALID,0.460938,
2012-04-07, 01:40:05,VALID,1009.64,VALID,0,VALID,104,VALID,0,VALID,23.2654,VALID,137,VALID,0.762891,
2012-04-07, 01:41:05,VALID,1009.63,VALID,0,VALID,104,VALID,0,VALID,23.3256,VALID,121,VALID,0.928906,
2012-04-07, 01:42:05,VALID,1009.59,VALID,0,VALID,104,VALID,0,VALID,23.3238,VALID,122,VALID,0.773047,
2012-04-07, 01:43:05,VALID,1009.59,VALID,0,VALID,104,VALID,0,VALID,23.3451,VALID,114,VALID,1.13828,
2012-04-07, 01:44:05,VALID,1009.55,VALID,0,VALID,104,VALID,0,VALID,23.3433,VALID,123,VALID,0.826953,
2012-04-07, 01:45:05,VALID,1009.57,VALID,0,VALID,104,VALID,0,VALID,23.3628,VALID,111,VALID,1.01016,
2012-04-07, 01:46:05,VALID,1009.53,VALID,0,VALID,104,VALID,0,VALID,23.3628,VALID,119,VALID,1.17227,
2012-04-07, 01:47:05,VALID,1009.54,VALID,0,VALID,104,VALID,0,VALID,23.3628,VALID,81,VALID,0.421094,
2012-04-07, 01:48:05,VALID,1009.54,VALID,0,VALID,104,VALID,0,VALID,23.3628,VALID,129,VALID,0.798437,
2012-04-07, 01:49:05,VALID,1009.52,VALID,0,VALID,104,VALID,0,VALID,23.384,VALID,117,VALID,1.14531,
2012-04-07, 01:50:05,VALID,1009.54,VALID,0,VALID,104,VALID,0,VALID,23.3628,VALID,129,VALID,1.60586,
2012-04-07, 01:51:05,VALID,1009.55,VALID,0,VALID,104,VALID,0,VALID,23.3628,VALID,93,VALID,0.842969,
2012-04-07, 01:52:05,VALID,1009.54,VALID,0,VALID,104,VALID,0,VALID,23.3628,VALID,99,VALID,1.07227,
2012-04-07, 01:53:05,VALID,1009.56,VALID,0,VALID,104,VALID,0,VALID,23.3628,VALID,107,VALID,0.525,
2012-04-07, 01:54:05,VALID,1009.58,VALID,0,VALID,104,VALID,0,VALID,23.3433,VALID,107,VALID,0.582422,
2012-04-07, 01:55:05,VALID,1009.54,VALID,0,VALID,104,VALID,0,VALID,23.3645,VALID,114,VALID,0.430859,
2012-04-07, 01:56:05,VALID,1009.57,VALID,0,VALID,104,VALID,0,VALID,23.3628,VALID,108,VALID,0.29375,
2012-04-07, 01:57:05,VALID,1009.54,VALID,0,VALID,104,VALID,0,VALID,23.3433,VALID,84,VALID,0.932422,
2012-04-07, 01:58:05,VALID,1009.54,VALID,0,VALID,104,VALID,0,VALID,23.3238,VALID,100,VALID,0.919141,
2012-04-07, 01:59:05,VALID,1009.53,VALID,0,VALID,104,VALID,0,VALID,23.3238,VALID,95,VALID,0.457812,
2012-04-07, 02:00:05,VALID,1009.54,VALID,0,VALID,104,VALID,0,VALID,23.3238,VALID,85,VALID,0.548828,
2012-04-07, 02:01:05,VALID,1009.49,VALID,0,VALID,104,VALID,0,VALID,23.3238,VALID,99,VALID,0.436719,
2012-04-07, 02:02:05,VALID,1009.5,VALID,0,VALID,104,VALID,0,VALID,23.3238,VALID,98,VALID,0.969922,
2012-04-07, 02:03:05,VALID,1009.5,VALID,0,VALID,104,VALID,0,VALID,23.3238,VALID,99,VALID,0.526563,
2012-04-07, 02:04:05,VALID,1009.52,VALID,0,VALID,104,VALID,0,VALID,23.3238,VALID,63,VALID,0.641406,
2012-04-07, 02:05:05,VALID,1009.54,VALID,0,VALID,104,VALID,0,VALID,23.3256,VALID,94,VALID,1.25664,
2012-04-07, 02:06:05,VALID,1009.53,VALID,0,VALID,104,VALID,0,VALID,23.3451,VALID,86,VALID,0.725781,
2012-04-07, 02:07:05,VALID,1009.56,VALID,0,VALID,104,VALID,0,VALID,23.3043,VALID,82,VALID,0.886719,
2012-04-07, 02:08:05,VALID,1009.57,VALID,0,VALID,104,VALID,0,VALID,23.3256,VALID,82,VALID,0.718359,
2012-04-07, 02:09:05,VALID,1009.58,VALID,0,VALID,104,VALID,0,VALID,23.3043,VALID,98,VALID,0.656641,
2012-04-07, 02:10:05,VALID,1009.62,VALID,0,VALID,104,VALID,0,VALID,23.3043,VALID,128,VALID,0.744922,
2012-04-07, 02:11:05,VALID,1009.62,VALID,0,VALID,104,VALID,0,VALID,23.3061,VALID,86,VALID,0.590625,
2012-04-07, 02:12:05,VALID,1009.64,VALID,0,VALID,104,VALID,0,VALID,23.3043,VALID,85,VALID,0.000390625,
2012-04-07, 02:13:05,VALID,1009.67,VALID,0,VALID,104,VALID,0,VALID,23.3256,VALID,85,VALID,0.261328,
2012-04-07, 02:14:05,VALID,1009.67,VALID,0,VALID,104,VALID,0,VALID,23.3061,VALID,86,VALID,0.305859,
2012-04-07, 02:15:05,VALID,1009.67,VALID,0,VALID,104,VALID,0,VALID,23.3061,VALID,86,VALID,0.393359,
2012-04-07, 02:16:05,VALID,1009.63,VALID,0,VALID,104,VALID,0,VALID,23.2848,VALID,86,VALID,0.195313,
2012-04-07, 02:17:05,VALID,1009.66,VALID,0,VALID,104,VALID,0,VALID,23.2654,VALID,90,VALID,0.554297,
2012-04-07, 02:18:05,VALID,1009.68,VALID,0,VALID,104,VALID,0,VALID,23.2654,VALID,87,VALID,0.464453,
2012-04-07, 02:19:05,VALID,1009.7,VALID,0,VALID,104,VALID,0,VALID,23.2654,VALID,87,VALID,0.515625,
2012-04-07, 02:20:05,VALID,1009.72,VALID,0,VALID,104,VALID,0,VALID,23.2671,VALID,87,VALID,0.0617188,
2012-04-07, 02:21:05,VALID,1009.72,VALID,0,VALID,104,VALID,0,VALID,23.2866,VALID,87,VALID,0,
2012-04-07, 02:22:05,VALID,1009.73,VALID,0,VALID,104,VALID,0,VALID,23.2264,VALID,87,VALID,0.0183594,
2012-04-07, 02:23:05,VALID,1009.74,VALID,0,VALID,104,VALID,0,VALID,23.2264,VALID,87,VALID,0.00234375,
2012-04-07, 02:24:05,VALID,1009.76,VALID,0,VALID,104,VALID,0,VALID,23.2264,VALID,87,VALID,0.0730469,
2012-04-07, 02:25:05,VALID,1009.78,VALID,0,VALID,104,VALID,0,VALID,23.2069,VALID,87,VALID,0,
2012-04-07, 02:26:05,VALID,1009.81,VALID,0,VALID,104,VALID,0,VALID,23.2087,VALID,87,VALID,0,
2012-04-07, 02:27:05,VALID,1009.78,VALID,0,VALID,104,VALID,0,VALID,23.1892,VALID,87,VALID,0.08125,
2012-04-07, 02:28:05,VALID,1009.81,VALID,0,VALID,104,VALID,0,VALID,23.1892,VALID,87,VALID,0.198828,
2012-04-07, 02:29:05,VALID,1009.82,VALID,0,VALID,104,VALID,0,VALID,23.1892,VALID,87,VALID,0.310156,
2012-04-07, 02:30:05,VALID,1009.79,VALID,0,VALID,104,VALID,0,VALID,23.2087,VALID,87,VALID,0.174219,
2012-04-07, 02:31:05,VALID,1009.79,VALID,0,VALID,104,VALID,0,VALID,23.1892,VALID,87,VALID,0.00429688,
2012-04-07, 02:32:05,VALID,1009.76,VALID,0,VALID,104,VALID,0,VALID,23.1892,VALID,87,VALID,0.213672,
2012-04-07, 02:33:05,VALID,1009.76,VALID,0,VALID,104,VALID,0,VALID,23.1485,VALID,76,VALID,0.0457031,
2012-04-07, 02:34:05,VALID,1009.73,VALID,0,VALID,104,VALID,0,VALID,23.1697,VALID,76,VALID,0.241406,
2012-04-07, 02:35:05,VALID,1009.71,VALID,0,VALID,104,VALID,0,VALID,23.1502,VALID,76,VALID,0.222266,
2012-04-07, 02:36:05,VALID,1009.71,VALID,0,VALID,104,VALID,0,VALID,23.1502,VALID,76,VALID,0,
2012-04-07, 02:37:05,VALID,1009.69,VALID,0,VALID,104,VALID,0,VALID,23.129,VALID,76,VALID,0,
2012-04-07, 02:38:05,VALID,1009.71,VALID,0,VALID,104,VALID,0,VALID,23.1095,VALID,76,VALID,0,
2012-04-07, 02:39:05,VALID,1009.67,VALID,0,VALID,104,VALID,0,VALID,23.1095,VALID,76,VALID,0.121484,
2012-04-07, 02:40:05,VALID,1009.7,VALID,0,VALID,104,VALID,0,VALID,23.1095,VALID,76,VALID,0.385156,
2012-04-07, 02:41:05,VALID,1009.71,VALID,0,VALID,104,VALID,0,VALID,23.09,VALID,76,VALID,0.292969,
2012-04-07, 02:42:05,VALID,1009.75,VALID,0,VALID,104,VALID,0,VALID,23.09,VALID,73,VALID,0.394922,
2012-04-07, 02:43:05,VALID,1009.74,VALID,0,VALID,104,VALID,0,VALID,23.1095,VALID,73,VALID,0.257813,
2012-04-07, 02:44:05,VALID,1009.76,VALID,0,VALID,104,VALID,0,VALID,23.1095,VALID,73,VALID,0.390625,
2012-04-07, 02:45:05,VALID,1009.77,VALID,0,VALID,104,VALID,0,VALID,23.09,VALID,67,VALID,0.111719,
2012-04-07, 02:46:05,VALID,1009.76,VALID,0,VALID,104,VALID,0,VALID,23.09,VALID,67,VALID,0.341016,
2012-04-07, 02:47:05,VALID,1009.77,VALID,0,VALID,104,VALID,0,VALID,23.0705,VALID,67,VALID,0.236719,
2012-04-07, 02:48:05,VALID,1009.77,VALID,0,VALID,104,VALID,0,VALID,23.0705,VALID,67,VALID,0.270312,
2012-04-07, 02:49:05,VALID,1009.76,VALID,0,VALID,104,VALID,0,VALID,23.0511,VALID,67,VALID,0.331641,
2012-04-07, 02:50:05,VALID,1009.77,VALID,0,VALID,104,VALID,0,VALID,23.0511,VALID,67,VALID,0,
2012-04-07, 02:51:05,VALID,1009.78,VALID,0,VALID,104,VALID,0,VALID,23.0493,VALID,67,VALID,0,
2012-04-07, 02:52:05,VALID,1009.76,VALID,0,VALID,104,VALID,0,VALID,23.0705,VALID,67,VALID,0.199609,
2012-04-07, 02:53:05,VALID,1009.76,VALID,0,VALID,104,VALID,0,VALID,23.09,VALID,67,VALID,0,
2012-04-07, 02:54:05,VALID,1009.78,VALID,0,VALID,104,VALID,0,VALID,23.0705,VALID,67,VALID,0.23125,
2012-04-07, 02:55:05,VALID,1009.77,VALID,0,VALID,104,VALID,0,VALID,23.0705,VALID,67,VALID,0.242969,
2012-04-07, 02:56:05,VALID,1009.79,VALID,0,VALID,104,VALID,0,VALID,23.0511,VALID,67,VALID,0.307813,
2012-04-07, 02:57:05,VALID,1009.77,VALID,0,VALID,104,VALID,0,VALID,23.0316,VALID,67,VALID,0.151562,
2012-04-07, 02:58:05,VALID,1009.76,VALID,0,VALID,104,VALID,0,VALID,23.0316,VALID,67,VALID,0.265625,
2012-04-07, 02:59:05,VALID,1009.78,VALID,0,VALID,104,VALID,0,VALID,23.0333,VALID,67,VALID,0.499609,
2012-04-07, 03:00:05,VALID,1009.77,VALID,0,VALID,104,VALID,0,VALID,23.0121,VALID,53,VALID,0.581641,
2012-04-07, 03:01:05,VALID,1009.76,VALID,0,VALID,104,VALID,0,VALID,23.0138,VALID,51,VALID,0.525,
2012-04-07, 03:02:05,VALID,1009.78,VALID,0,VALID,104,VALID,0,VALID,22.9731,VALID,50,VALID,0.569922,
2012-04-07, 03:03:05,VALID,1009.76,VALID,0,VALID,104,VALID,0,VALID,22.9536,VALID,50,VALID,0.329688,
2012-04-07, 03:04:05,VALID,1009.74,VALID,0,VALID,104,VALID,0,VALID,22.9536,VALID,50,VALID,0.457422,
2012-04-07, 03:05:05,VALID,1009.72,VALID,0,VALID,104,VALID,0,VALID,22.9536,VALID,50,VALID,0.320313,
2012-04-07, 03:06:05,VALID,1009.71,VALID,0,VALID,104,VALID,0,VALID,22.9536,VALID,50,VALID,0.296875,
2012-04-07, 03:07:05,VALID,1009.68,VALID,0,VALID,104,VALID,0,VALID,22.9536,VALID,50,VALID,0.171484,
2012-04-07, 03:08:05,VALID,1009.68,VALID,0,VALID,104,VALID,0.112112,VALID,22.9519,VALID,50,VALID,0.25625,
2012-04-07, 03:09:05,VALID,1009.67,VALID,0,VALID,104,VALID,0,VALID,22.9536,VALID,50,VALID,0.334766,
2012-04-07, 03:10:05,VALID,1009.67,VALID,0,VALID,104,VALID,0,VALID,22.9536,VALID,50,VALID,0.219531,
2012-04-07, 03:11:04,VALID,1009.68,VALID,0,VALID,104,VALID,0,VALID,22.9731,VALID,50,VALID,0.171094,
2012-04-07, 03:12:04,VALID,1009.69,VALID,0,VALID,104,VALID,0,VALID,22.9536,VALID,50,VALID,0.213672,
2012-04-07, 03:13:04,VALID,1009.7,VALID,0,VALID,104,VALID,0,VALID,22.9536,VALID,50,VALID,0.103516,
2012-04-07, 03:14:04,VALID,1009.73,VALID,0,VALID,104,VALID,0.112112,VALID,22.9731,VALID,50,VALID,0.219531,
2012-04-07, 03:15:04,VALID,1009.72,VALID,0,VALID,104,VALID,0,VALID,22.9731,VALID,50,VALID,0.107813,
2012-04-07, 03:16:04,VALID,1009.74,VALID,0,VALID,104,VALID,0,VALID,22.9731,VALID,50,VALID,0.158203,
2012-04-07, 03:17:04,VALID,1009.74,VALID,0,VALID,104,VALID,0,VALID,22.9536,VALID,50,VALID,0.1875,
2012-04-07, 03:18:04,VALID,1009.75,VALID,0,VALID,104,VALID,0.112112,VALID,22.9731,VALID,50,VALID,0.147266,
2012-04-07, 03:19:04,VALID,1009.73,VALID,0,VALID,104,VALID,0,VALID,22.9731,VALID,50,VALID,0,
2012-04-07, 03:20:04,VALID,1009.71,VALID,0,VALID,104,VALID,0,VALID,22.9731,VALID,50,VALID,0,
2012-04-07, 03:21:04,VALID,1009.7,VALID,0,VALID,104,VALID,0,VALID,22.9731,VALID,50,VALID,0.00273437,
2012-04-07, 03:22:04,VALID,1009.7,VALID,0,VALID,104,VALID,0,VALID,22.9536,VALID,50,VALID,0.332812,
2012-04-07, 03:23:04,VALID,1009.68,VALID,0,VALID,104,VALID,0,VALID,22.9536,VALID,50,VALID,0.334766,
2012-04-07, 03:24:04,VALID,1009.67,VALID,0,VALID,104,VALID,0,VALID,22.9554,VALID,50,VALID,0.469531,
2012-04-07, 03:25:04,VALID,1009.65,VALID,0,VALID,104,VALID,0,VALID,22.9342,VALID,50,VALID,0.412891,
2012-04-07, 03:26:04,VALID,1009.63,VALID,0,VALID,104,VALID,0,VALID,22.9342,VALID,50,VALID,0.395312,
2012-04-07, 03:27:04,VALID,1009.63,VALID,0,VALID,104,VALID,0,VALID,22.9536,VALID,50,VALID,0.310937,
2012-04-07, 03:28:04,VALID,1009.62,VALID,0,VALID,104,VALID,0,VALID,22.9536,VALID,50,VALID,0.452734,
2012-04-07, 03:29:04,VALID,1009.62,VALID,0,VALID,104,VALID,0,VALID,22.9731,VALID,50,VALID,0.599609,
2012-04-07, 03:30:04,VALID,1009.57,VALID,0,VALID,104,VALID,0,VALID,22.9536,VALID,50,VALID,0.315234,
2012-04-07, 03:31:04,VALID,1009.56,VALID,0,VALID,104,VALID,0,VALID,22.9749,VALID,50,VALID,0.142578,
2012-04-07, 03:32:04,VALID,1009.56,VALID,0,VALID,104,VALID,0,VALID,22.9554,VALID,50,VALID,0,
2012-04-07, 03:33:04,VALID,1009.54,VALID,0,VALID,104,VALID,0,VALID,22.9536,VALID,50,VALID,0.503125,
2012-04-07, 03:34:04,VALID,1009.55,VALID,0,VALID,104,VALID,0,VALID,22.9749,VALID,50,VALID,0.309766,
2012-04-07, 03:35:04,VALID,1009.55,VALID,0,VALID,104,VALID,0,VALID,22.9749,VALID,50,VALID,0.422266,
2012-04-07, 03:36:04,VALID,1009.55,VALID,0,VALID,104,VALID,0.112112,VALID,22.9324,VALID,50,VALID,0.480859,
2012-04-07, 03:37:04,VALID,1009.56,VALID,0,VALID,104,VALID,0,VALID,22.9536,VALID,50,VALID,0.5625,
2012-04-07, 03:38:04,VALID,1009.55,VALID,0,VALID,104,VALID,0,VALID,22.9342,VALID,50,VALID,0.611328,
2012-04-07, 03:39:04,VALID,1009.56,VALID,0,VALID,104,VALID,0,VALID,22.9147,VALID,50,VALID,0.608203,
2012-04-07, 03:40:04,VALID,1009.6,VALID,0,VALID,104,VALID,0,VALID,22.9147,VALID,50,VALID,0.614844,
2012-04-07, 03:41:04,VALID,1009.59,VALID,0,VALID,104,VALID,0,VALID,22.9147,VALID,50,VALID,0.823828,
2012-04-07, 03:42:04,VALID,1009.62,VALID,0,VALID,104,VALID,0.112112,VALID,22.8935,VALID,50,VALID,0.478906,
2012-04-07, 03:43:04,VALID,1009.63,VALID,0,VALID,104,VALID,0.112112,VALID,22.9147,VALID,50,VALID,0.419922,
2012-04-07, 03:44:04,VALID,1009.65,VALID,0,VALID,104,VALID,0.112112,VALID,22.8952,VALID,56,VALID,0.750781,
2012-04-07, 03:45:04,VALID,1009.67,VALID,0,VALID,104,VALID,0,VALID,22.8952,VALID,73,VALID,0.672656,
2012-04-07, 03:46:04,VALID,1009.68,VALID,0,VALID,104,VALID,0.112112,VALID,22.8952,VALID,71,VALID,0.687109,
2012-04-07, 03:47:04,VALID,1009.67,VALID,0,VALID,104,VALID,0.112112,VALID,22.8952,VALID,92,VALID,0.724219,
2012-04-07, 03:48:04,VALID,1009.68,VALID,0,VALID,104,VALID,0,VALID,22.8952,VALID,81,VALID,0.524219,
2012-04-07, 03:49:04,VALID,1009.66,VALID,0,VALID,104,VALID,0,VALID,22.8952,VALID,78,VALID,0.720703,
2012-04-07, 03:50:04,VALID,1009.66,VALID,0,VALID,104,VALID,0.112112,VALID,22.8952,VALID,78,VALID,0.791406,
2012-04-07, 03:51:04,VALID,1009.65,VALID,0,VALID,104,VALID,0,VALID,22.8952,VALID,75,VALID,0.602344,
2012-04-07, 03:52:04,VALID,1009.64,VALID,0,VALID,104,VALID,0.112112,VALID,22.8952,VALID,75,VALID,0.382422,
2012-04-07, 03:53:04,VALID,1009.65,VALID,0,VALID,104,VALID,0,VALID,22.8545,VALID,75,VALID,0.131641,
2012-04-07, 03:54:04,VALID,1009.64,VALID,0,VALID,104,VALID,0.112112,VALID,22.8757,VALID,75,VALID,0.373437,